EW0433 Weather Reports


Display with metric or nautical units.
time (UTC)temp
F
wind
direction
speed
MPH
gust
MPH
rain 1hr
in
rain 24hr
in
rain mn
in
humidity
%
barometer
mb
20260510081347 51 345 9.0 16.0 0.00 0.00 0.00 70 1014.2
20260510080327 51 345 8.0 15.0 0.00 0.00 0.00 70 1014.1
20260510075332 51 345 10.0 16.0 0.00 0.00 0.00 70 1014.2
20260510074322 51 345 9.0 16.0 0.00 0.00 0.00 70 1014.3
20260510073348 51 345 6.0 18.0 0.00 0.00 0.00 70 1014.4
20260510072349 51 345 7.0 16.0 0.00 0.00 0.00 70 1014.4
20260510071346 51 345 7.0 15.0 0.00 0.00 0.00 71 1014.4
20260510070315 51 345 7.0 14.0 0.00 0.00 0.00 71 1014.3
20260510065321 51 345 5.0 12.0 0.00 0.00 0.00 71 1014.3
20260510064335 52 345 6.0 11.0 0.00 0.00 0.00 71 1014.2
20260510063318 52 345 2.0 9.0 0.00 0.00 0.00 71 1014.3
20260510062325 52 345 4.0 9.0 0.00 0.00 0.00 71 1014.2
20260510061316 52 345 4.0 8.0 0.00 0.00 0.00 72 1014.2
20260510060316 52 345 2.0 10.0 0.00 0.00 0.00 72 1014.2
20260510055322 52 345 5.0 13.0 0.00 0.00 0.00 72 1014.3
20260510054315 52 345 6.0 14.0 0.00 0.00 0.00 72 1014.3
20260510053325 52 345 4.0 16.0 0.00 0.00 0.00 72 1014.3
20260510052330 52 283 7.0 14.0 0.00 0.00 0.00 72 1014.2
20260510051320 53 253 8.0 14.0 0.00 0.00 0.00 73 1014.2
20260510050320 53 271 6.0 11.0 0.00 0.00 0.00 73 1014.2
20260510045337 53 250 7.0 11.0 0.00 0.00 0.00 74 1014.1
20260510044319 53 239 4.0 10.0 0.00 0.00 0.00 74 1014.1
20260510043349 53 256 3.0 8.0 0.00 0.00 0.00 74 1014.0
20260510042340 53 254 4.0 14.0 0.00 0.00 0.00 75 1014.0
20260510041326 54 303 6.0 14.0 0.00 0.00 0.00 75 1013.7
20260510040328 54 345 5.0 15.0 0.00 0.00 0.00 76 1013.6
20260510035316 54 345 4.0 13.0 0.00 0.00 0.00 76 1013.5
20260510034352 54 345 5.0 10.0 0.00 0.00 0.00 77 1013.5
20260510033311 54 345 5.0 12.0 0.00 0.00 0.00 77 1013.4
20260510032329 54 345 9.0 17.0 0.00 0.00 0.00 78 1013.3
20260510031341 54 345 4.0 13.0 0.00 0.00 0.00 78 1013.3
20260510030323 55 345 6.0 13.0 0.00 0.00 0.00 78 1013.1
20260510025314 55 345 7.0 12.0 0.00 0.00 0.00 78 1013.1
20260510024328 55 345 6.0 15.0 0.00 0.00 0.00 79 1013.2
20260510023335 55 307 8.0 17.0 0.00 0.00 0.00 78 1013.1
20260510022327 56 275 6.0 18.0 0.00 0.00 0.00 78 1013.0
20260510021320 56 350 10.0 18.0 0.00 0.00 0.00 78 1013.0
20260510020317 57 246 12.0 25.0 0.00 0.00 0.00 77 1012.9
20260510015335 58 281 11.0 21.0 0.00 0.00 0.00 76 1012.9
20260510014347 58 271 10.0 23.0 0.00 0.00 0.00 75 1013.0
20260510013312 59 227 12.0 22.0 0.00 0.00 0.00 74 1012.9
20260510012319 59 278 14.0 20.0 0.00 0.00 0.00 73 1013.1
20260510011344 60 249 10.0 17.0 0.00 0.00 0.00 73 1013.1
20260510010316 60 298 8.0 15.0 0.00 0.00 0.00 73 1013.2
20260510005331 60 271 6.0 17.0 0.00 0.00 0.00 73 1013.3
20260510004317 61 311 8.0 17.0 0.00 0.00 0.00 73 1013.4
20260510003324 61 272 8.0 18.0 0.00 0.00 0.00 72 1013.5
20260510002334 61 287 9.0 19.0 0.00 0.00 0.00 72 1013.5
20260510001324 61 298 8.0 21.0 0.00 0.00 0.00 74 1013.5
20260510000343 61 316 10.0 20.0 0.00 0.00 0.00 73 1013.5
20260509235335 61 295 9.0 25.0 0.00 0.00 0.00 73 1013.5
20260509234328 61 340 13.0 26.0 0.00 0.00 0.00 73 1013.7
20260509233310 62 247 11.0 20.0 0.00 0.00 0.00 72 1013.7
20260509232322 62 251 13.0 21.0 0.00 0.00 0.00 73 1013.7
20260509231338 62 252 14.0 23.0 0.00 0.00 0.00 72 1013.8
20260509230322 63 273 12.0 23.0 0.00 0.00 0.00 72 1013.7
20260509225334 63 258 13.0 20.0 0.00 0.00 0.00 71 1013.9
20260509224346 63 254 13.0 21.0 0.00 0.00 0.00 72 1014.1
20260509223336 64 256 11.0 28.0 0.00 0.00 0.00 70 1014.2
20260509222328 64 259 13.0 23.0 0.00 0.00 0.00 69 1014.3
20260509221332 64 237 11.0 20.0 0.00 0.00 0.00 69 1014.4
20260509220320 65 257 14.0 24.0 0.00 0.00 0.00 68 1014.4
20260509215329 65 270 11.0 22.0 0.00 0.00 0.00 68 1014.5
20260509214328 66 274 12.0 21.0 0.00 0.00 0.00 67 1014.6
20260509213335 66 264 14.0 24.0 0.00 0.00 0.00 66 1014.6
20260509212324 67 274 12.0 21.0 0.00 0.00 0.00 64 1014.6
20260509211328 67 231 11.0 20.0 0.00 0.00 0.00 66 1014.6
20260509210333 67 269 12.0 18.0 0.00 0.00 0.00 65 1014.6
20260509205320 68 262 13.0 19.0 0.00 0.00 0.00 64 1014.7
20260509204325 69 248 8.0 19.0 0.00 0.00 0.00 64 1014.7
20260509203326 69 267 10.0 18.0 0.00 0.00 0.00 63 1014.5
20260509202315 69 275 9.0 17.0 0.00 0.00 0.00 63 1014.7
20260509201315 70 252 10.0 21.0 0.00 0.00 0.00 61 1014.7
20260509200321 71 280 10.0 17.0 0.00 0.00 0.00 60 1014.7
20260509195326 71 253 11.0 16.0 0.00 0.00 0.00 60 1014.8
20260509194326 71 244 9.0 14.0 0.00 0.00 0.00 59 1014.8
20260509193335 71 247 11.0 16.0 0.00 0.00 0.00 60 1014.9
20260509192321 72 277 9.0 12.0 0.00 0.00 0.00 60 1014.9
20260509191323 72 254 6.0 14.0 0.00 0.00 0.00 62 1015.0
20260509190350 71 271 6.0 12.0 0.00 0.00 0.00 63 1015.1
20260509185330 71 269 7.0 12.0 0.00 0.00 0.00 62 1015.3
20260509184322 71 248 5.0 10.0 0.00 0.00 0.00 61 1015.3
20260509183330 71 248 4.0 8.0 0.00 0.00 0.00 61 1015.3
20260509182320 70 284 2.0 7.0 0.00 0.00 0.00 61 1015.3
20260509181324 70 271 2.0 6.0 0.00 0.00 0.00 61 1015.3
20260509180329 69 218 2.0 6.0 0.00 0.00 0.00 63 1015.4
20260509175315 69 58 1.0 4.0 0.00 0.00 0.00 64 1015.4
20260509174317 68 196 0.0 2.0 0.00 0.00 0.00 64 1015.5
20260509173322 66 195 2.0 3.0 0.00 0.00 0.00 66 1015.5
20260509172338 66 138 1.0 3.0 0.00 0.00 0.00 67 1015.6
20260509171339 65 101 1.0 9.0 0.00 0.00 0.00 67 1015.6
20260509170329 64 96 1.0 6.0 0.00 0.00 0.00 68 1015.7
20260509165329 63 123 1.0 6.0 0.00 0.00 0.00 69 1015.7
20260509164320 63 104 1.0 6.0 0.00 0.00 0.00 70 1015.7
20260509163332 62 100 1.0 4.0 0.00 0.00 0.00 71 1015.7
20260509162315 61 135 4.0 7.0 0.00 0.00 0.00 71 1015.8
20260509161323 59 252 1.0 4.0 0.00 0.00 0.00 71 1015.9
20260509160326 58 219 2.0 7.0 0.00 0.00 0.00 69 1015.9
20260509155327 56 250 2.0 3.0 0.00 0.00 0.00 68 1015.9
20260509154329 55 258 2.0 4.0 0.00 0.00 0.00 67 1016.0
20260509153313 53 256 2.0 4.0 0.00 0.00 0.00 69 1016.0
20260509152321 52 262 2.0 4.0 0.00 0.00 0.00 72 1015.9
20260509151329 52 256 1.0 3.0 0.00 0.00 0.00 73 1015.8
20260509150325 51 259 0.0 3.0 0.00 0.00 0.00 73 1015.9
20260509145325 50 259 1.0 4.0 0.00 0.00 0.00 73 1015.8
20260509144403 50 255 3.0 6.0 0.00 0.00 0.00 72 1015.8
20260509143318 49 256 2.0 6.0 0.00 0.00 0.00 72 1015.7
20260509142354 49 262 3.0 7.0 0.00 0.00 0.00 72 1015.7
20260509141327 49 267 3.0 4.0 0.00 0.00 0.00 72 1015.5
20260509140322 48 264 1.0 4.0 0.00 0.00 0.00 71 1015.4
20260509135338 48 265 2.0 3.0 0.00 0.00 0.00 71 1015.3
20260509134350 48 345 1.0 3.0 0.00 0.00 0.00 71 1015.3
20260509133335 48 345 2.0 4.0 0.00 0.00 0.00 71 1015.2
20260509132318 47 272 0.0 2.0 0.00 0.00 0.00 70 1015.3
20260509131323 47 272 1.0 3.0 0.00 0.00 0.00 70 1015.3
20260509130322 48 273 1.0 3.0 0.00 0.00 0.00 70 1015.3
20260509125338 48 273 1.0 6.0 0.00 0.00 0.00 70 1015.2
20260509124325 48 273 3.0 7.0 0.00 0.00 0.00 71 1015.1
20260509123352 48 271 2.0 5.0 0.00 0.00 0.00 71 1015.1
20260509122320 48 262 0.0 3.0 0.00 0.00 0.00 71 1015.1
20260509121325 48 262 0.0 2.0 0.00 0.00 0.00 71 1015.1
20260509120327 48 262 1.0 3.0 0.00 0.00 0.00 71 1015.1
20260509115316 48 262 0.0 3.0 0.00 0.00 0.00 71 1015.2
20260509114329 49 262 1.0 4.0 0.00 0.00 0.00 71 1015.1
20260509113328 49 262 2.0 6.0 0.00 0.00 0.00 71 1015.2
20260509112321 49 265 2.0 7.0 0.00 0.00 0.00 71 1015.2
20260509111338 49 263 2.0 5.0 0.00 0.00 0.00 71 1015.3
20260509110316 49 267 1.0 3.0 0.00 0.00 0.00 71 1015.3
20260509105319 49 271 0.0 3.0 0.00 0.00 0.00 71 1015.3
20260509104344 49 293 1.0 3.0 0.00 0.00 0.00 71 1015.3
20260509103350 49 291 2.0 4.0 0.00 0.00 0.00 72 1015.3
20260509102345 49 297 1.0 3.0 0.00 0.00 0.00 72 1015.3
20260509101353 49 345 1.0 4.0 0.00 0.00 0.00 72 1015.3
20260509100336 49 263 1.0 2.0 0.00 0.00 0.00 72 1015.3
20260509095327 49 345 0.0 2.0 0.00 0.00 0.00 72 1015.3
20260509094317 49 345 0.0 2.0 0.00 0.00 0.00 72 1015.3
20260509093342 49 345 0.0 2.0 0.00 0.00 0.00 72 1015.4
20260509092314 50 345 1.0 3.0 0.00 0.00 0.00 73 1015.3
20260509091347 50 345 0.0 3.0 0.00 0.00 0.00 73 1015.4
20260509090335 50 345 1.0 4.0 0.00 0.00 0.00 73 1015.5
20260509085324 50 345 1.0 6.0 0.00 0.00 0.00 73 1015.6
20260509084331 50 345 4.0 9.0 0.00 0.00 0.00 73 1015.6
20260509083335 50 345 2.0 5.0 0.00 0.00 0.00 74 1015.6
20260509082325 50 345 0.0 2.0 0.00 0.00 0.00 74 1015.6